When you browse on this site, cookies collect data to enhance your experience and personalize the content and advertising you see.
Visit our Privacy Policy to learn more. By continuing to use the site, you agree to this use of cookies and data.
  • In Spain
  • List of Countries
  • For 7 days
  • Water Temperature
  • Weather Map
  • Weather Widgets
  • user-avatar
    Login

    Hourly Weather Kipungo

    Today, 26 January, Sunday

    Time Temperature Precipitation Wind Pressure Humidity
    00:00 +21°C° 0.4 mm 1 mps 653 mmHg 92%
    01:00 +20°C° 0 mm 1 mps 653 mmHg 92%
    02:00 +20°C° 0.2 mm 1 mps 652 mmHg 92%
    03:00 +20°C° 0.2 mm 1 mps 652 mmHg 92%
    04:00 +19°C° 0.2 mm 1 mps 652 mmHg 92%
    05:00 +20°C° 0 mm 1 mps 652 mmHg 90%
    06:00 +18°C° 0 mm 0 mps 653 mmHg 88%
    07:00 +19°C° 0 mm 0 mps 653 mmHg 85%
    08:00 +23°C° 0 mm 1 mps 654 mmHg 75%
    09:00 +25°C° 0 mm 1 mps 654 mmHg 65%
    10:00 +27°C° 0 mm 1 mps 655 mmHg 54%
    11:00 +29°C° 0 mm 1 mps 654 mmHg 52%
    12:00 +30°C° 0 mm 1 mps 654 mmHg 49%
    13:00 +31°C° 0 mm 2 mps 654 mmHg 49%
    14:00 +30°C° 0.3 mm 1 mps 654 mmHg 53%
    15:00 +30°C° 0.3 mm 1 mps 653 mmHg 57%
    16:00 +29°C° 0.3 mm 1 mps 652 mmHg 61%
    17:00 +27°C° 0.5 mm 1 mps 653 mmHg 68%
    18:00 +25°C° 0.5 mm 1 mps 653 mmHg 76%
    19:00 +24°C° 0.5 mm 1 mps 653 mmHg 83%
    20:00 +23°C° 1.2 mm 1 mps 653 mmHg 86%
    21:00 +22°C° 1.2 mm 1 mps 653 mmHg 89%
    22:00 +21°C° 1.2 mm 1 mps 653 mmHg 92%
    23:00 +21°C° 1.4 mm 1 mps 653 mmHg 92%

    Tomorrow, 27 January, Monday

    Time Temperature Precipitation Wind Pressure Humidity
    00:00 +20°C° 1.4 mm 1 mps 653 mmHg 92%
    01:00 +20°C° 1.4 mm 1 mps 653 mmHg 92%
    02:00 +20°C° 0.1 mm 1 mps 653 mmHg 91%
    03:00 +20°C° 0.1 mm 1 mps 653 mmHg 90%
    04:00 +20°C° 0.1 mm 1 mps 652 mmHg 89%
    05:00 +20°C° 0 mm 1 mps 653 mmHg 88%
    06:00 +19°C° 0 mm 0 mps 653 mmHg 87%
    07:00 +19°C° 0 mm 0 mps 654 mmHg 85%
    08:00 +22°C° 0.1 mm 0 mps 655 mmHg 78%
    09:00 +24°C° 0.1 mm 0 mps 655 mmHg 70%
    10:00 +27°C° 0.1 mm 0 mps 656 mmHg 62%
    11:00 +30°C° 0.3 mm 1 mps 655 mmHg 58%
    12:00 +30°C° 0.3 mm 1 mps 655 mmHg 55%
    13:00 +31°C° 0.3 mm 2 mps 655 mmHg 51%
    14:00 +30°C° 1.2 mm 2 mps 654 mmHg 55%
    15:00 +29°C° 1.2 mm 2 mps 653 mmHg 59%
    16:00 +29°C° 1.2 mm 2 mps 653 mmHg 63%
    17:00 +27°C° 1.9 mm 2 mps 653 mmHg 71%
    18:00 +25°C° 1.9 mm 2 mps 653 mmHg 78%
    19:00 +23°C° 1.9 mm 1 mps 653 mmHg 86%
    20:00 +22°C° 0.5 mm 1 mps 653 mmHg 88%
    21:00 +22°C° 0.5 mm 1 mps 653 mmHg 91%
    22:00 +21°C° 0.5 mm 1 mps 654 mmHg 93%
    23:00 +21°C° 0.3 mm 1 mps 654 mmHg 93%

    Day after tomorrow, 28 January, Tuesday

    Time Temperature Precipitation Wind Pressure Humidity
    00:00 +21°C° 0.3 mm 1 mps 654 mmHg 94%
    01:00 +21°C° 0.3 mm 1 mps 653 mmHg 94%
    02:00 +20°C° 0 mm 1 mps 653 mmHg 95%
    03:00 +20°C° 0 mm 1 mps 653 mmHg 96%
    04:00 +19°C° 0 mm 1 mps 652 mmHg 97%
    05:00 +20°C° 0.3 mm 1 mps 653 mmHg 95%
    06:00 +20°C° 0.3 mm 1 mps 653 mmHg 94%
    07:00 +19°C° 0.3 mm 0 mps 653 mmHg 93%
    08:00 +23°C° 0.2 mm 1 mps 654 mmHg 84%
    09:00 +25°C° 0.2 mm 1 mps 654 mmHg 76%
    10:00 +27°C° 0.2 mm 2 mps 655 mmHg 68%
    11:00 +27°C° 1.4 mm 2 mps 654 mmHg 68%
    12:00 +27°C° 1.4 mm 2 mps 654 mmHg 68%
    13:00 +28°C° 1.4 mm 2 mps 653 mmHg 69%
    14:00 +27°C° 2.2 mm 2 mps 653 mmHg 71%
    15:00 +27°C° 2.2 mm 1 mps 652 mmHg 73%
    16:00 +27°C° 2.2 mm 1 mps 652 mmHg 75%
    17:00 +25°C° 0.2 mm 1 mps 652 mmHg 78%
    18:00 +24°C° 0.2 mm 1 mps 652 mmHg 82%
    19:00 +23°C° 0.2 mm 1 mps 652 mmHg 85%
    20:00 +22°C° 0.2 mm 1 mps 652 mmHg 86%
    21:00 +22°C° 0.2 mm 1 mps 652 mmHg 88%
    22:00 +21°C° 0.2 mm 1 mps 653 mmHg 89%
    23:00 +21°C° 0.2 mm 1 mps 653 mmHg 91%

    29 January, Wednesday

    Time Temperature Precipitation Wind Pressure Humidity
    00:00 +21°C° 0.2 mm 1 mps 652 mmHg 93%
    01:00 +20°C° 0.2 mm 1 mps 652 mmHg 95%
    02:00 +20°C° 0.1 mm 1 mps 652 mmHg 95%
    03:00 +18°C° 0.1 mm 0 mps 652 mmHg 95%
    04:00 +18°C° 0.1 mm 0 mps 651 mmHg 96%
    05:00 +18°C° 0.1 mm 0 mps 652 mmHg 95%
    06:00 +18°C° 0.1 mm 0 mps 652 mmHg 94%
    07:00 +19°C° 0.1 mm 0 mps 653 mmHg 93%
    08:00 +23°C° 0.5 mm 1 mps 653 mmHg 86%
    09:00 +25°C° 0.5 mm 1 mps 654 mmHg 78%
    10:00 +27°C° 0.5 mm 1 mps 654 mmHg 71%
    11:00 +28°C° 0.7 mm 1 mps 654 mmHg 64%
    12:00 +29°C° 0.7 mm 2 mps 654 mmHg 58%
    13:00 +30°C° 0.7 mm 2 mps 654 mmHg 52%
    14:00 +30°C° 0.3 mm 2 mps 653 mmHg 54%
    15:00 +29°C° 0.3 mm 2 mps 653 mmHg 56%
    16:00 +29°C° 0.3 mm 3 mps 652 mmHg 58%
    17:00 +27°C° 1.1 mm 2 mps 652 mmHg 66%
    18:00 +25°C° 1.1 mm 1 mps 652 mmHg 74%
    19:00 +23°C° 1.1 mm 1 mps 652 mmHg 82%
    20:00 +22°C° 1.3 mm 1 mps 652 mmHg 84%
    21:00 +22°C° 1.3 mm 1 mps 652 mmHg 87%
    22:00 +21°C° 1.3 mm 1 mps 653 mmHg 89%
    23:00 +20°C° 0.7 mm 1 mps 653 mmHg 92%

    30 January, Thursday

    Time Temperature Precipitation Wind Pressure Humidity
    00:00 +20°C° 0.7 mm 1 mps 653 mmHg 94%
    01:00 +20°C° 0.7 mm 1 mps 653 mmHg 97%
    02:00 +20°C° 1.1 mm 1 mps 653 mmHg 97%
    03:00 +20°C° 1.1 mm 1 mps 652 mmHg 97%
    04:00 +18°C° 1.1 mm 0 mps 652 mmHg 97%
    05:00 +18°C° 1.6 mm 0 mps 653 mmHg 97%
    06:00 +20°C° 1.6 mm 1 mps 653 mmHg 96%
    07:00 +20°C° 1.6 mm 1 mps 654 mmHg 96%
    08:00 +22°C° 0.9 mm 1 mps 654 mmHg 88%
    09:00 +25°C° 0.9 mm 1 mps 655 mmHg 80%
    10:00 +27°C° 0.9 mm 1 mps 655 mmHg 73%
    11:00 +28°C° 0.8 mm 1 mps 655 mmHg 69%
    12:00 +28°C° 0.8 mm 1 mps 655 mmHg 66%
    13:00 +29°C° 0.8 mm 1 mps 654 mmHg 63%
    14:00 +28°C° 2 mm 1 mps 654 mmHg 68%
    15:00 +27°C° 2 mm 1 mps 653 mmHg 74%
    16:00 +26°C° 2 mm 1 mps 652 mmHg 79%
    17:00 +25°C° 1.1 mm 1 mps 652 mmHg 83%
    18:00 +23°C° 1.1 mm 1 mps 652 mmHg 87%
    19:00 +22°C° 1.1 mm 1 mps 653 mmHg 92%
    20:00 +22°C° 0.4 mm 1 mps 653 mmHg 92%
    21:00 +21°C° 0.4 mm 1 mps 654 mmHg 92%
    22:00 +21°C° 0.4 mm 1 mps 654 mmHg 93%
    23:00 +21°C° 0.8 mm 1 mps 654 mmHg 94%

    31 January, Friday

    Time Temperature Precipitation Wind Pressure Humidity
    00:00 +21°C° 0.8 mm 1 mps 654 mmHg 95%
    01:00 +21°C° 0.8 mm 1 mps 654 mmHg 96%
    02:00 +20°C° 0.6 mm 1 mps 654 mmHg 96%
    03:00 +20°C° 0.6 mm 1 mps 653 mmHg 96%
    04:00 +20°C° 0.6 mm 1 mps 653 mmHg 96%
    05:00 +20°C° 0.6 mm 1 mps 653 mmHg 96%
    06:00 +19°C° 0.6 mm 2 mps 654 mmHg 96%
    07:00 +19°C° 0.6 mm 2 mps 654 mmHg 95%
    08:00 +20°C° 0.2 mm 2 mps 654 mmHg 90%
    09:00 +21°C° 0.2 mm 2 mps 655 mmHg 85%
    10:00 +22°C° 0.2 mm 3 mps 655 mmHg 80%
    11:00 +24°C° 0.1 mm 2 mps 655 mmHg 76%
    12:00 +25°C° 0.1 mm 2 mps 654 mmHg 72%
    13:00 +26°C° 0.1 mm 2 mps 654 mmHg 69%
    14:00 +26°C° 0.9 mm 2 mps 653 mmHg 71%
    15:00 +26°C° 0.9 mm 2 mps 653 mmHg 74%
    16:00 +26°C° 0.9 mm 2 mps 652 mmHg 76%
    17:00 +24°C° 1.4 mm 2 mps 652 mmHg 81%
    18:00 +23°C° 1.4 mm 1 mps 652 mmHg 87%
    19:00 +22°C° 1.4 mm 1 mps 652 mmHg 92%
    20:00 +22°C° 1.5 mm 1 mps 653 mmHg 92%
    21:00 +21°C° 1.5 mm 1 mps 653 mmHg 93%
    22:00 +21°C° 1.5 mm 1 mps 653 mmHg 94%
    23:00 +21°C° 0.6 mm 1 mps 653 mmHg 95%
    Show more